| time (UTC) | temp F | wind direction | speed knots | gust knots | rain 1hr in | rain 24hr in | rain mn in | humidity % | barometer mb |
| 20260506195104 | 74 | 314 | 5.2 | 13.0 | 0.00 | 0.00 | 0.00 | 75 | 1008.9 |
| 20260506194108 | 75 | 5 | 5.2 | 13.0 | 0.00 | 0.00 | 0.00 | 73 | 1008.7 |
| 20260506193106 | 76 | 339 | 5.2 | 13.0 | 0.00 | 0.00 | 0.00 | 73 | 1008.5 |
| 20260506192034 | 78 | 355 | 5.2 | 13.0 | 0.00 | 0.00 | 0.00 | 72 | 1008.5 |
| 20260506191002 | 79 | 355 | 3.5 | 8.7 | 0.00 | 0.00 | 0.00 | 71 | 1008.4 |
| 20260506185945 | 81 | 61 | 2.6 | 7.0 | 0.00 | 0.00 | 0.00 | 71 | 1008.6 |
| 20260506184944 | 82 | 5 | 1.7 | 7.8 | 0.00 | 0.00 | 0.00 | 69 | 1008.6 |
| 20260506183914 | 81 | 37 | 1.7 | 7.8 | 0.00 | 0.00 | 0.00 | 71 | 1008.5 |
| 20260506182901 | 81 | 351 | 0.9 | 6.1 | 0.00 | 0.00 | 0.00 | 71 | 1008.3 |
| 20260506181901 | 80 | 301 | 0.9 | 6.1 | 0.00 | 0.00 | 0.00 | 72 | 1008.5 |
| 20260506180909 | 78 | 24 | 0.9 | 7.8 | 0.00 | 0.00 | 0.00 | 75 | 1008.6 |
| 20260506175927 | 77 | 30 | 1.7 | 7.8 | 0.00 | 0.00 | 0.00 | 75 | 1008.5 |
| 20260506173729 | 75 | 54 | 1.7 | 5.2 | 0.00 | 0.00 | 0.00 | 75 | 1008.6 |
| 20260506172708 | 75 | 5 | 0.9 | 5.2 | 0.00 | 0.00 | 0.00 | 76 | 1008.6 |
| 20260506171728 | 74 | 15 | 1.7 | 7.0 | 0.00 | 0.00 | 0.00 | 77 | 1008.8 |
| 20260506170722 | 72 | 0 | 2.6 | 7.8 | 0.00 | 0.00 | 0.00 | 82 | 1008.8 |
| 20260506165658 | 70 | 33 | 1.7 | 7.8 | 0.00 | 0.00 | 0.00 | 82 | 1008.8 |
| 20260506164624 | 68 | 20 | 3.5 | 9.6 | 0.00 | 0.00 | 0.00 | 84 | 1009.0 |
| 20260506163612 | 67 | 337 | 3.5 | 10.4 | 0.00 | 0.00 | 0.00 | 84 | 1009.3 |
| 20260506162550 | 68 | 30 | 4.3 | 10.4 | 0.00 | 0.00 | 0.00 | 84 | 1009.6 |
| 20260506161526 | 69 | 355 | 5.2 | 13.0 | 0.00 | 0.00 | 0.00 | 84 | 1009.8 |
| 20260506160525 | 72 | 5 | 5.2 | 13.0 | 0.00 | 0.00 | 0.00 | 80 | 1010.0 |
| 20260506155530 | 77 | 330 | 2.6 | 12.2 | 0.00 | 0.00 | 0.00 | 77 | 1009.4 |
| 20260506154539 | 78 | 43 | 0.0 | 4.3 | 0.00 | 0.00 | 0.00 | 85 | 1009.1 |
| 20260506153527 | 77 | 54 | 0.0 | 2.6 | 0.00 | 0.00 | 0.00 | 86 | 1008.8 |
| 20260506152522 | 77 | 86 | 0.0 | 0.0 | 0.00 | 0.00 | 0.00 | 86 | 1008.7 |
| 20260506150341 | 77 | 123 | 0.0 | 0.9 | 0.00 | 0.00 | 0.00 | 87 | 1008.1 |
| 20260506145342 | 77 | 182 | 0.0 | 4.3 | 0.00 | 0.00 | 0.00 | 87 | 1007.7 |
| 20260506144351 | 77 | 144 | 0.0 | 2.6 | 0.00 | 0.00 | 0.00 | 87 | 1007.6 |
| 20260506142232 | 76 | 143 | 1.7 | 6.1 | 0.00 | 0.00 | 0.00 | 88 | 1007.2 |
| 20260506134907 | 75 | 182 | 0.9 | 4.3 | 0.00 | 0.00 | 0.00 | 90 | 1007.2 |
| 20260506133919 | 75 | 193 | 0.9 | 5.2 | 0.00 | 0.00 | 0.00 | 91 | 1006.8 |
| 20260506132907 | 75 | 140 | 1.7 | 6.1 | 0.00 | 0.00 | 0.00 | 91 | 1006.8 |
| 20260506130712 | 75 | 122 | 1.7 | 7.0 | 0.00 | 0.00 | 0.00 | 92 | 1006.6 |
| 20260506125716 | 75 | 153 | 1.7 | 7.0 | 0.00 | 0.00 | 0.00 | 92 | 1006.5 |
| 20260506124734 | 74 | 142 | 0.9 | 6.1 | 0.00 | 0.00 | 0.00 | 92 | 1006.4 |
| 20260506123724 | 74 | 118 | 0.9 | 5.2 | 0.00 | 0.00 | 0.00 | 92 | 1006.4 |
| 20260506122729 | 74 | 141 | 0.0 | 1.7 | 0.00 | 0.00 | 0.00 | 92 | 1006.4 |
| 20260506121716 | 74 | 130 | 0.0 | 1.7 | 0.00 | 0.00 | 0.00 | 92 | 1006.5 |
| 20260506120702 | 75 | 116 | 0.0 | 1.7 | 0.00 | 0.00 | 0.00 | 91 | 1006.6 |
| 20260506115712 | 75 | 144 | 0.0 | 1.7 | 0.00 | 0.00 | 0.00 | 91 | 1006.4 |
| 20260506114642 | 75 | 98 | 0.0 | 1.7 | 0.00 | 0.00 | 0.00 | 91 | 1006.3 |
| 20260506113656 | 75 | 138 | 0.0 | 0.9 | 0.00 | 0.00 | 0.00 | 90 | 1006.4 |
| 20260506112639 | 75 | 138 | 0.0 | 1.7 | 0.00 | 0.00 | 0.00 | 91 | 1006.4 |
| 20260506111653 | 75 | 123 | 0.0 | 1.7 | 0.00 | 0.00 | 0.00 | 90 | 1006.3 |
| 20260506110706 | 75 | 160 | 0.0 | 1.7 | 0.00 | 0.00 | 0.00 | 90 | 1006.2 |
| 20260506105643 | 75 | 194 | 0.0 | 1.7 | 0.00 | 0.00 | 0.00 | 90 | 1006.2 |
| 20260506104609 | 75 | 171 | 0.0 | 3.5 | 0.00 | 0.00 | 0.00 | 90 | 1006.1 |
| 20260506103544 | 75 | 205 | 0.9 | 4.3 | 0.00 | 0.00 | 0.00 | 90 | 1005.9 |
| 20260506102604 | 75 | 190 | 0.9 | 7.0 | 0.00 | 0.00 | 0.00 | 90 | 1005.7 |
| 20260506101543 | 75 | 192 | 2.6 | 7.8 | 0.00 | 0.00 | 0.00 | 90 | 1005.7 |
| 20260506095403 | 75 | 209 | 3.5 | 9.6 | 0.00 | 0.00 | 0.00 | 90 | 1005.6 |
| 20260506094423 | 75 | 192 | 2.6 | 7.0 | 0.00 | 0.00 | 0.00 | 90 | 1005.5 |
| 20260506092254 | 75 | 187 | 3.5 | 12.2 | 0.00 | 0.00 | 0.00 | 90 | 1005.3 |
| 20260506091240 | 75 | 204 | 2.6 | 10.4 | 0.00 | 0.00 | 0.00 | 90 | 1005.2 |
| 20260506090207 | 75 | 219 | 2.6 | 7.8 | 0.00 | 0.00 | 0.00 | 90 | 1005.1 |
| 20260506084057 | 75 | 170 | 3.5 | 10.4 | 0.00 | 0.00 | 0.00 | 90 | 1005.1 |
| 20260506081934 | 75 | 172 | 2.6 | 7.0 | 0.00 | 0.00 | 0.00 | 90 | 1005.2 |
| 20260506080953 | 75 | 188 | 4.3 | 10.4 | 0.00 | 0.00 | 0.00 | 90 | 1005.2 |
| 20260506072857 | 75 | 188 | 4.3 | 11.3 | 0.00 | 0.00 | 0.00 | 89 | 1005.6 |
| 20260506071858 | 76 | 182 | 4.3 | 11.3 | 0.00 | 0.00 | 0.00 | 89 | 1005.6 |
| 20260506070907 | 76 | 161 | 2.6 | 11.3 | 0.00 | 0.00 | 0.00 | 89 | 1005.7 |
| 20260506060736 | 76 | 198 | 5.2 | 12.2 | 0.00 | 0.00 | 0.00 | 88 | 1005.7 |
| 20260506050354 | 76 | 175 | 5.2 | 13.9 | 0.00 | 0.00 | 0.00 | 87 | 1005.8 |
| 20260506044348 | 76 | 171 | 6.1 | 14.8 | 0.00 | 0.00 | 0.00 | 87 | 1005.8 |
| 20260506043343 | 76 | 173 | 4.3 | 13.0 | 0.00 | 0.00 | 0.00 | 88 | 1005.8 |
| 20260506041214 | 77 | 188 | 3.5 | 9.6 | 0.00 | 0.00 | 0.00 | 88 | 1005.6 |
| 20260506040158 | 77 | 178 | 3.5 | 8.7 | 0.00 | 0.00 | 0.00 | 87 | 1005.6 |
| 20260506035201 | 77 | 165 | 3.5 | 8.7 | 0.00 | 0.00 | 0.00 | 87 | 1005.3 |
| 20260506034133 | 77 | 180 | 3.5 | 8.7 | 0.00 | 0.00 | 0.00 | 87 | 1005.3 |
| 20260506033150 | 77 | 154 | 3.5 | 8.7 | 0.00 | 0.00 | 0.00 | 87 | 1005.2 |
| 20260506031110 | 77 | 175 | 3.5 | 10.4 | 0.00 | 0.00 | 0.00 | 85 | 1005.0 |
| 20260506030111 | 77 | 148 | 3.5 | 10.4 | 0.00 | 0.00 | 0.00 | 85 | 1004.8 |
| 20260506025039 | 78 | 182 | 3.5 | 7.8 | 0.00 | 0.00 | 0.00 | 84 | 1004.8 |
| 20260506024027 | 78 | 217 | 3.5 | 9.6 | 0.00 | 0.00 | 0.00 | 84 | 1004.6 |
| 20260506022956 | 78 | 175 | 3.5 | 9.6 | 0.00 | 0.00 | 0.00 | 83 | 1004.4 |
| 20260506021954 | 78 | 159 | 2.6 | 7.0 | 0.00 | 0.00 | 0.00 | 82 | 1004.2 |
| 20260506020928 | 78 | 161 | 2.6 | 7.0 | 0.00 | 0.00 | 0.00 | 82 | 1004.0 |
| 20260506015938 | 79 | 128 | 2.6 | 7.8 | 0.00 | 0.00 | 0.00 | 81 | 1003.8 |
| 20260506014953 | 79 | 126 | 2.6 | 7.8 | 0.00 | 0.00 | 0.00 | 81 | 1003.8 |
| 20260506014006 | 79 | 171 | 2.6 | 7.0 | 0.00 | 0.00 | 0.00 | 80 | 1003.7 |
| 20260506012957 | 80 | 149 | 1.7 | 6.1 | 0.00 | 0.00 | 0.00 | 80 | 1003.7 |
| 20260506011937 | 80 | 143 | 1.7 | 4.3 | 0.00 | 0.00 | 0.00 | 79 | 1003.6 |
| 20260506010953 | 81 | 143 | 1.7 | 4.3 | 0.00 | 0.00 | 0.00 | 78 | 1003.8 |
| 20260506005952 | 81 | 161 | 1.7 | 3.5 | 0.00 | 0.00 | 0.00 | 76 | 1003.7 |
| 20260506004924 | 82 | 137 | 0.0 | 3.5 | 0.00 | 0.00 | 0.00 | 75 | 1003.8 |
| 20260506003927 | 82 | 147 | 0.9 | 6.1 | 0.00 | 0.00 | 0.00 | 75 | 1003.7 |
| 20260506002906 | 82 | 184 | 1.7 | 6.1 | 0.00 | 0.00 | 0.00 | 74 | 1003.6 |
| 20260506001837 | 82 | 150 | 1.7 | 7.0 | 0.00 | 0.00 | 0.00 | 73 | 1003.6 |
| 20260506000834 | 83 | 178 | 2.6 | 7.8 | 0.00 | 0.00 | 0.00 | 73 | 1003.6 |
| 20260505235816 | 83 | 189 | 2.6 | 8.7 | 0.00 | 0.00 | 0.00 | 73 | 1003.4 |
| 20260505234837 | 83 | 164 | 2.6 | 8.7 | 0.00 | 0.00 | 0.00 | 72 | 1003.3 |
| 20260505233816 | 83 | 181 | 2.6 | 11.3 | 0.00 | 0.00 | 0.00 | 71 | 1003.1 |
| 20260505232800 | 83 | 207 | 3.5 | 11.3 | 0.00 | 0.00 | 0.00 | 70 | 1003.2 |
| 20260505230608 | 83 | 213 | 1.7 | 8.7 | 0.00 | 0.00 | 0.00 | 71 | 1003.3 |
| 20260505225551 | 83 | 244 | 2.6 | 13.9 | 0.00 | 0.00 | 0.00 | 70 | 1003.2 |
| 20260505224515 | 84 | 155 | 3.5 | 13.9 | 0.00 | 0.00 | 0.00 | 70 | 1003.2 |
| 20260505223512 | 84 | 188 | 3.5 | 11.3 | 0.00 | 0.00 | 0.00 | 69 | 1003.1 |
| 20260505222527 | 84 | 127 | 2.6 | 11.3 | 0.00 | 0.00 | 0.00 | 68 | 1003.1 |
| 20260505221516 | 85 | 195 | 2.6 | 10.4 | 0.00 | 0.00 | 0.00 | 67 | 1003.1 |
| 20260505220529 | 85 | 209 | 4.3 | 11.3 | 0.00 | 0.00 | 0.00 | 68 | 1003.1 |
| 20260505213222 | 86 | 213 | 2.6 | 10.4 | 0.00 | 0.00 | 0.00 | 67 | 1003.6 |
| 20260505212216 | 85 | 190 | 3.5 | 10.4 | 0.00 | 0.00 | 0.00 | 68 | 1003.7 |
| 20260505211232 | 85 | 196 | 3.5 | 9.6 | 0.00 | 0.00 | 0.00 | 66 | 1003.7 |
| 20260505210229 | 86 | 167 | 3.5 | 9.6 | 0.00 | 0.00 | 0.00 | 67 | 1003.9 |
| 20260505204023 | 85 | 207 | 4.3 | 12.2 | 0.00 | 0.00 | 0.00 | 68 | 1004.2 |
| 20260505203002 | 85 | 173 | 3.5 | 11.3 | 0.00 | 0.00 | 0.00 | 69 | 1004.5 |
| 20260505202004 | 85 | 252 | 4.3 | 10.4 | 0.00 | 0.00 | 0.00 | 68 | 1004.7 |
| 20260505201009 | 84 | 219 | 2.6 | 13.9 | 0.00 | 0.00 | 0.00 | 70 | 1004.8 |
| 20260505195956 | 84 | 156 | 4.3 | 13.9 | 0.00 | 0.00 | 0.00 | 68 | 1004.8 |